Overview Statistics Trail Chart Weather Telemetry Raw packets
 

This is the latest recevied weather packets stored in our database for station/object M0JUI-1. If no packets are shown the sender has not sent any weather packets the latest 10 day(s).

<< 22 23 24 25 26 27 28 >>
Time Temp. Humidity Pressure Rain* Wind** Luminosity Snow
1788483249 15° C 17% 1008.6 hPa 5.59 mm - 0 W/m² -
1788482949 15° C 17% 1008.6 hPa 5.59 mm - 0 W/m² -
1788482674 15° C 17% 1008.6 hPa 5.33 mm - 0 W/m² -
1788482349 15° C 17% 1008.7 hPa 5.33 mm - 0 W/m² -
1788482050 15° C 17% 1008.9 hPa 5.08 mm - 0 W/m² -
1788481449 15° C 17% 1009.2 hPa 4.06 mm - 0 W/m² -
1788481149 15° C 16% 1009.4 hPa 3.05 mm - 0 W/m² -
1788480850 15° C 16% 1009.6 hPa 2.79 mm - 0 W/m² -
1788480549 15° C 16% 1009.6 hPa 2.54 mm - 0 W/m² -
1788480247 15° C 15% 1009.7 hPa 2.29 mm - 0 W/m² -
1788479949 15° C 15% 1009.9 hPa 1.78 mm - 0 W/m² -
1788479649 15° C 14% 1010 hPa 1.27 mm - 0 W/m² -
1788479349 15° C 14% 1010.4 hPa 0.76 mm - 0 W/m² -
1788479049 15.56° C 13% 1010.4 hPa 0.76 mm - 0 W/m² -
1788478737 15.56° C 12% 1010.5 hPa 0.25 mm - 0 W/m² -
1788478438 15.56° C 13% 1010.6 hPa 0 mm - 0 W/m² -
1788478137 16.11° C 14% 1011 hPa 0 mm - 0 W/m² -
1788477837 16.11° C 15% 1010.7 hPa 0 mm - 0 W/m² -
1788477537 16.67° C 15% 1010.8 hPa 0 mm - 0 W/m² -
1788477237 16.67° C 16% 1011 hPa 0 mm - 0 W/m² -
1788476937 16.67° C 16% 1011 hPa 0 mm - 0 W/m² -
1788476637 16.67° C 15% 1011.1 hPa 0 mm - 0 W/m² -
1788476337 16.67° C 15% 1010.9 hPa 0 mm - 0 W/m² -
1788476037 16.67° C 15% 1011.1 hPa 0 mm - 0 W/m² -
1788475738 16.67° C 16% 1011 hPa 0 mm - 0 W/m² -

* Rain latest hour (hover to see other rain measurements)
** Current wind speed in m/s (hover to see current wind gust speed)